Time,TemperatureF,DewpointF,PressureIn,WindDirection,WindDirectionDegrees,WindSpeedMPH,WindSpeedGustMPH,Humidity,HourlyPrecipIn,Conditions,Clouds,dailyrainin,SoftwareType,DateUTC
2013-05-18 00:00:00,65.3,60.3,29.89,SE,125,11.0,12.0,84,0.00,,,0.00,VWS V14.01,2013-05-18 05:00:00,
2013-05-18 00:01:00,65.3,60.3,29.89,ESE,112,11.0,11.0,84,0.00,,CLR,0.00,VWS V14.01,2013-05-18 05:01:00,
2013-05-18 00:06:00,65.3,60.3,29.89,ESE,111,8.0,13.0,84,0.00,,CLR,0.00,VWS V14.01,2013-05-18 05:06:00,
2013-05-18 00:11:00,65.2,60.2,29.89,SE,143,7.0,13.0,84,0.00,,CLR,0.00,VWS V14.01,2013-05-18 05:11:00,
2013-05-18 00:16:00,64.8,60.2,29.89,ESE,113,6.0,13.0,85,0.00,,CLR,0.00,VWS V14.01,2013-05-18 05:16:00,
2013-05-18 00:21:00,64.3,60.0,29.90,ESE,118,6.0,13.0,86,0.00,,CLR,0.00,VWS V14.01,2013-05-18 05:21:00,
2013-05-18 00:26:00,64.1,59.8,29.90,ESE,113,7.0,13.0,86,0.00,,CLR,0.00,VWS V14.01,2013-05-18 05:26:00,
2013-05-18 00:30:00,63.9,59.6,29.90,SE,133,5.0,13.0,86,0.00,,,0.00,VWS V14.01,2013-05-18 05:30:00,
2013-05-18 00:31:00,63.9,59.6,29.90,SE,141,5.0,6.0,86,0.00,,CLR,0.00,VWS V14.01,2013-05-18 05:31:00,
2013-05-18 00:36:00,63.7,59.8,29.90,ESE,117,7.0,7.0,87,0.00,,CLR,0.00,VWS V14.01,2013-05-18 05:36:00,
2013-05-18 00:41:00,63.6,59.7,29.90,ESE,118,7.0,9.0,87,0.00,,CLR,0.00,VWS V14.01,2013-05-18 05:41:00,
2013-05-18 00:46:00,63.2,59.3,29.89,ESE,113,6.0,9.0,87,0.00,,CLR,0.00,VWS V14.01,2013-05-18 05:46:00,
2013-05-18 00:51:00,62.9,59.3,29.89,SE,126,6.0,9.0,88,0.00,,CLR,0.00,VWS V14.01,2013-05-18 05:51:00,
2013-05-18 00:56:00,62.7,59.1,29.89,ESE,117,5.0,9.0,88,0.00,,CLR,0.00,VWS V14.01,2013-05-18 05:56:00,
2013-05-18 01:00:00,62.6,59.0,29.89,ESE,119,7.0,9.0,88,0.00,,,0.00,VWS V14.01,2013-05-18 06:00:00,
2013-05-18 01:01:00,62.6,59.0,29.89,SE,133,7.0,8.0,88,0.00,,CLR,0.00,VWS V14.01,2013-05-18 06:01:00,
2013-05-18 01:06:00,62.6,59.0,29.89,ESE,117,7.0,8.0,88,0.00,,CLR,0.00,VWS V14.01,2013-05-18 06:06:00,
2013-05-18 01:11:00,62.5,58.9,29.89,ESE,118,4.0,8.0,88,0.00,,CLR,0.00,VWS V14.01,2013-05-18 06:11:00,
2013-05-18 01:16:00,62.2,58.9,29.89,SE,141,6.0,8.0,89,0.00,,CLR,0.00,VWS V14.01,2013-05-18 06:16:00,
2013-05-18 01:21:00,62.0,58.7,29.89,SE,136,5.0,8.0,89,0.00,,CLR,0.00,VWS V14.01,2013-05-18 06:21:00,
2013-05-18 01:26:00,61.8,58.5,29.89,ESE,121,5.0,8.0,89,0.00,,CLR,0.00,VWS V14.01,2013-05-18 06:26:00,
2013-05-18 01:30:00,61.9,58.6,29.89,ESE,122,6.0,8.0,89,0.00,,,0.00,VWS V14.01,2013-05-18 06:30:00,
2013-05-18 01:31:00,61.8,58.5,29.89,ESE,112,6.0,7.0,89,0.00,,CLR,0.00,VWS V14.01,2013-05-18 06:31:00,
2013-05-18 01:36:00,61.8,58.2,29.89,SSE,155,6.0,9.0,88,0.00,,CLR,0.00,VWS V14.01,2013-05-18 06:36:00,
2013-05-18 01:41:00,61.8,58.2,29.89,ESE,123,6.0,10.0,88,0.00,,CLR,0.00,VWS V14.01,2013-05-18 06:41:00,
2013-05-18 01:46:00,61.6,58.3,29.89,SE,125,7.0,10.0,89,0.00,,CLR,0.00,VWS V14.01,2013-05-18 06:46:00,
2013-05-18 01:51:00,61.5,58.2,29.89,ESE,118,7.0,10.0,89,0.00,,CLR,0.00,VWS V14.01,2013-05-18 06:51:00,
2013-05-18 01:56:00,61.6,58.3,29.89,ESE,121,6.0,10.0,89,0.00,,CLR,0.00,VWS V14.01,2013-05-18 06:56:00,
2013-05-18 02:00:00,61.6,58.0,29.89,SE,129,7.0,10.0,88,0.00,,,0.00,VWS V14.01,2013-05-18 07:00:00,
2013-05-18 02:01:00,61.6,58.0,29.89,SE,124,6.0,7.0,88,0.00,,CLR,0.00,VWS V14.01,2013-05-18 07:01:00,
2013-05-18 02:06:00,61.6,58.0,29.89,SE,124,7.0,11.0,88,0.00,,CLR,0.00,VWS V14.01,2013-05-18 07:06:00,
2013-05-18 02:11:00,61.6,58.0,29.89,SE,126,8.0,11.0,88,0.00,,CLR,0.00,VWS V14.01,2013-05-18 07:11:00,
2013-05-18 02:16:00,61.5,57.9,29.89,ESE,122,8.0,11.0,88,0.00,,CLR,0.00,VWS V14.01,2013-05-18 07:16:00,
2013-05-18 02:21:00,61.4,57.8,29.89,SE,135,7.0,11.0,88,0.00,,CLR,0.00,VWS V14.01,2013-05-18 07:21:00,
2013-05-18 02:26:00,61.4,57.8,29.89,SE,131,7.0,11.0,88,0.00,,CLR,0.00,VWS V14.01,2013-05-18 07:26:00,
2013-05-18 02:30:00,61.4,57.8,29.89,SE,125,8.0,11.0,88,0.00,,,0.00,VWS V14.01,2013-05-18 07:30:00,
2013-05-18 02:31:00,61.3,57.7,29.89,ESE,110,7.0,8.0,88,0.00,,CLR,0.00,VWS V14.01,2013-05-18 07:31:00,
2013-05-18 02:36:00,61.2,57.6,29.89,SE,133,8.0,11.0,88,0.00,,CLR,0.00,VWS V14.01,2013-05-18 07:36:00,
2013-05-18 02:41:00,61.1,57.5,29.88,SE,129,7.0,11.0,88,0.00,,CLR,0.00,VWS V14.01,2013-05-18 07:41:00,
2013-05-18 02:46:00,61.0,57.4,29.89,SE,125,7.0,11.0,88,0.00,,CLR,0.00,VWS V14.01,2013-05-18 07:46:00,
2013-05-18 02:51:00,60.9,57.6,29.89,ESE,112,5.0,11.0,89,0.00,,CLR,0.00,VWS V14.01,2013-05-18 07:51:00,
2013-05-18 02:56:00,60.8,57.5,29.88,ESE,120,7.0,11.0,89,0.00,,CLR,0.00,VWS V14.01,2013-05-18 07:56:00,
2013-05-18 03:00:00,60.7,57.4,29.88,ESE,122,8.0,11.0,89,0.00,,,0.00,VWS V14.01,2013-05-18 08:00:00,
2013-05-18 03:01:00,60.7,57.4,29.88,ESE,120,6.0,7.0,89,0.00,,CLR,0.00,VWS V14.01,2013-05-18 08:01:00,
2013-05-18 03:06:00,60.8,57.2,29.88,ESE,111,8.0,11.0,88,0.00,,CLR,0.00,VWS V14.01,2013-05-18 08:06:00,
2013-05-18 03:11:00,60.7,57.1,29.88,ESE,112,7.0,11.0,88,0.00,,CLR,0.00,VWS V14.01,2013-05-18 08:11:00,
2013-05-18 03:16:00,60.6,57.0,29.89,East,98,6.0,11.0,88,0.00,,CLR,0.00,VWS V14.01,2013-05-18 08:16:00,
2013-05-18 03:21:00,60.4,56.8,29.88,ESE,104,7.0,11.0,88,0.00,,CLR,0.00,VWS V14.01,2013-05-18 08:21:00,
2013-05-18 03:26:00,60.2,56.6,29.88,ESE,112,6.0,11.0,88,0.00,,CLR,0.00,VWS V14.01,2013-05-18 08:26:00,
2013-05-18 03:30:00,60.1,56.8,29.88,ESE,121,8.0,11.0,89,0.00,,,0.00,VWS V14.01,2013-05-18 08:30:00,
2013-05-18 03:31:00,60.1,56.8,29.88,ESE,115,8.0,8.0,89,0.00,,CLR,0.00,VWS V14.01,2013-05-18 08:31:00,
2013-05-18 03:36:00,59.9,56.7,29.88,ESE,104,7.0,10.0,89,0.00,,CLR,0.00,VWS V14.01,2013-05-18 08:36:00,
2013-05-18 03:41:00,59.8,56.6,29.88,ESE,117,9.0,10.0,89,0.00,,CLR,0.00,VWS V14.01,2013-05-18 08:41:00,
2013-05-18 03:46:00,59.7,56.5,29.88,ESE,120,7.0,10.0,89,0.00,,CLR,0.00,VWS V14.01,2013-05-18 08:46:00,
2013-05-18 03:51:00,59.5,56.3,29.88,ESE,113,5.0,10.0,89,0.00,,CLR,0.00,VWS V14.01,2013-05-18 08:51:00,
2013-05-18 03:56:00,59.4,56.2,29.88,SE,131,6.0,10.0,89,0.00,,CLR,0.00,VWS V14.01,2013-05-18 08:56:00,
2013-05-18 04:00:00,59.3,56.1,29.88,ESE,112,8.0,10.0,89,0.00,,,0.00,VWS V14.01,2013-05-18 09:00:00,
2013-05-18 04:01:00,59.3,56.1,29.88,ESE,115,8.0,8.0,89,0.00,,CLR,0.00,VWS V14.01,2013-05-18 09:01:00,
2013-05-18 04:06:00,59.2,56.0,29.88,ESE,116,7.0,11.0,89,0.00,,CLR,0.00,VWS V14.01,2013-05-18 09:06:00,
2013-05-18 04:11:00,59.1,55.9,29.88,ESE,122,8.0,11.0,89,0.00,,CLR,0.00,VWS V14.01,2013-05-18 09:11:00,
2013-05-18 04:16:00,58.9,56.0,29.88,ESE,117,7.0,11.0,90,0.00,,CLR,0.00,VWS V14.01,2013-05-18 09:16:00,
2013-05-18 04:21:00,58.9,56.0,29.87,East,101,7.0,11.0,90,0.00,,CLR,0.00,VWS V14.01,2013-05-18 09:21:00,
2013-05-18 04:26:00,58.9,56.0,29.88,ESE,108,9.0,11.0,90,0.00,,CLR,0.00,VWS V14.01,2013-05-18 09:26:00,
2013-05-18 04:30:00,58.9,55.7,29.87,ESE,122,9.0,9.0,89,0.00,,CLR,0.00,VWS V14.01,2013-05-18 09:30:00,
2013-05-18 04:35:00,58.7,55.8,29.88,ESE,120,8.0,10.0,90,0.00,,CLR,0.00,VWS V14.01,2013-05-18 09:35:00,
2013-05-18 04:40:00,58.5,55.6,29.87,ESE,120,10.0,11.0,90,0.00,,CLR,0.00,VWS V14.01,2013-05-18 09:40:00,
2013-05-18 04:46:00,58.7,55.5,29.87,ESE,110,10.0,13.0,89,0.00,,CLR,0.00,VWS V14.01,2013-05-18 09:46:00,
2013-05-18 04:51:00,58.8,55.6,29.87,ESE,119,11.0,13.0,89,0.00,,CLR,0.00,VWS V14.01,2013-05-18 09:51:00,
2013-05-18 04:56:00,58.8,55.6,29.87,SE,128,8.0,13.0,89,0.00,,CLR,0.00,VWS V14.01,2013-05-18 09:56:00,
2013-05-18 05:00:00,58.8,55.6,29.87,ESE,110,7.0,13.0,89,0.00,,CLR,0.00,VWS V14.01,2013-05-18 10:00:00,
2013-05-18 05:05:00,58.6,55.4,29.87,ESE,110,6.0,9.0,89,0.00,,CLR,0.00,VWS V14.01,2013-05-18 10:05:00,
2013-05-18 05:10:00,58.3,55.4,29.88,ESE,118,7.0,9.0,90,0.00,,CLR,0.00,VWS V14.01,2013-05-18 10:10:00,
2013-05-18 05:15:00,58.2,55.3,29.88,ESE,122,7.0,9.0,90,0.00,,CLR,0.00,VWS V14.01,2013-05-18 10:15:00,
2013-05-18 05:20:00,57.9,55.0,29.88,ESE,121,5.0,9.0,90,0.00,,CLR,0.00,VWS V14.01,2013-05-18 10:20:00,
2013-05-18 05:25:00,57.7,55.1,29.88,ESE,117,6.0,9.0,91,0.00,,CLR,0.00,VWS V14.01,2013-05-18 10:25:00,
2013-05-18 05:30:00,57.6,55.0,29.88,ESE,118,8.0,9.0,91,0.00,,CLR,0.00,VWS V14.01,2013-05-18 10:30:00,
2013-05-18 05:35:00,57.5,54.9,29.88,SE,128,5.0,9.0,91,0.00,,CLR,0.00,VWS V14.01,2013-05-18 10:35:00,
2013-05-18 05:40:00,57.4,55.1,29.88,SE,136,6.0,9.0,92,0.00,,CLR,0.00,VWS V14.01,2013-05-18 10:40:00,
2013-05-18 05:45:00,57.4,55.1,29.89,ESE,121,7.0,10.0,92,0.00,,CLR,0.00,VWS V14.01,2013-05-18 10:45:00,
2013-05-18 05:50:00,57.3,55.0,29.89,SE,131,6.0,10.0,92,0.00,,CLR,0.00,VWS V14.01,2013-05-18 10:50:00,
2013-05-18 05:55:00,57.2,54.9,29.89,SE,143,4.0,10.0,92,0.00,,CLR,0.00,VWS V14.01,2013-05-18 10:55:00,
2013-05-18 06:00:00,57.2,54.9,29.89,SE,134,8.0,10.0,92,0.00,,,0.00,VWS V14.01,2013-05-18 11:00:00,
2013-05-18 06:05:00,57.0,54.7,29.89,ESE,123,5.0,8.0,92,0.00,,,0.00,VWS V14.01,2013-05-18 11:05:00,
2013-05-18 06:10:00,56.9,54.9,29.89,ESE,116,4.0,8.0,93,0.00,,,0.00,VWS V14.01,2013-05-18 11:10:00,
2013-05-18 06:15:00,56.9,54.9,29.89,ESE,120,3.0,8.0,93,0.00,,,0.00,VWS V14.01,2013-05-18 11:15:00,
2013-05-18 06:20:00,56.8,54.8,29.89,ESE,113,5.0,8.0,93,0.00,,,0.00,VWS V14.01,2013-05-18 11:20:00,
2013-05-18 06:25:00,56.9,54.9,29.89,SE,141,4.0,8.0,93,0.00,,,0.00,VWS V14.01,2013-05-18 11:25:00,
2013-05-18 06:30:00,57.0,55.0,29.90,SE,134,3.0,8.0,93,0.00,,,0.00,VWS V14.01,2013-05-18 11:30:00,
2013-05-18 06:35:00,57.1,55.4,29.90,SE,125,3.0,4.0,94,0.00,,,0.00,VWS V14.01,2013-05-18 11:35:00,
2013-05-18 06:40:00,57.3,55.3,29.90,SE,133,3.0,4.0,93,0.00,,,0.00,VWS V14.01,2013-05-18 11:40:00,
2013-05-18 06:45:00,57.6,55.6,29.91,ESE,114,3.0,4.0,93,0.00,,,0.00,VWS V14.01,2013-05-18 11:45:00,
2013-05-18 06:50:00,57.9,55.9,29.91,ESE,105,3.0,5.0,93,0.00,,,0.00,VWS V14.01,2013-05-18 11:50:00,
2013-05-18 06:55:00,58.3,56.0,29.91,ESE,119,4.0,6.0,92,0.00,,,0.00,VWS V14.01,2013-05-18 11:55:00,
2013-05-18 07:00:00,58.6,56.3,29.90,ESE,123,5.0,8.0,92,0.00,,,0.00,VWS V14.01,2013-05-18 12:00:00,
2013-05-18 07:05:00,58.8,56.5,29.90,SE,143,7.0,9.0,92,0.00,,,0.00,VWS V14.01,2013-05-18 12:05:00,
2013-05-18 07:10:00,59.0,57.0,29.90,ESE,123,8.0,9.0,93,0.00,,,0.00,VWS V14.01,2013-05-18 12:10:00,
2013-05-18 07:15:00,59.4,57.1,29.90,SE,134,8.0,11.0,92,0.00,,,0.00,VWS V14.01,2013-05-18 12:15:00,
2013-05-18 07:20:00,59.5,57.2,29.90,SE,140,9.0,11.0,92,0.00,,,0.00,VWS V14.01,2013-05-18 12:20:00,
2013-05-18 07:25:00,59.7,57.4,29.90,SE,125,10.0,11.0,92,0.00,,,0.00,VWS V14.01,2013-05-18 12:25:00,
2013-05-18 07:30:00,59.9,57.6,29.90,SE,134,7.0,11.0,92,0.00,,,0.00,VWS V14.01,2013-05-18 12:30:00,
2013-05-18 07:35:00,60.1,58.1,29.90,ESE,117,7.0,9.0,93,0.00,,,0.00,VWS V14.01,2013-05-18 12:35:00,
2013-05-18 07:40:00,60.4,58.1,29.89,SE,141,7.0,9.0,92,0.00,,,0.00,VWS V14.01,2013-05-18 12:40:00,
2013-05-18 07:47:00,60.6,58.3,29.89,SE,141,9.0,9.0,92,0.00,,,0.00,VWS V14.01,2013-05-18 12:47:00,
2013-05-18 07:52:00,60.9,58.6,29.90,SSE,167,6.0,10.0,92,0.00,,,0.00,VWS V14.01,2013-05-18 12:52:00,
2013-05-18 07:57:00,61.3,59.0,29.90,SE,141,7.0,10.0,92,0.00,,,0.00,VWS V14.01,2013-05-18 12:57:00,
2013-05-18 08:00:00,58.6,56.3,29.90,SE,134,5.0,8.0,92,0.00,,,0.00,VWS V14.01,2013-05-18 13:00:00,
2013-05-18 08:02:00,61.7,59.0,29.90,SSE,156,8.0,9.0,91,0.00,,,0.00,VWS V14.01,2013-05-18 13:02:00,
2013-05-18 08:07:00,62.0,59.3,29.90,SSE,163,7.0,10.0,91,0.00,,,0.00,VWS V14.01,2013-05-18 13:07:00,
2013-05-18 08:12:00,62.4,59.7,29.90,SSE,160,6.0,10.0,91,0.00,,,0.00,VWS V14.01,2013-05-18 13:12:00,
2013-05-18 08:17:00,62.6,59.6,29.90,SE,134,6.0,10.0,90,0.00,,,0.00,VWS V14.01,2013-05-18 13:17:00,
2013-05-18 08:22:00,63.0,60.0,29.90,SE,131,6.0,10.0,90,0.00,,,0.00,VWS V14.01,2013-05-18 13:22:00,
2013-05-18 08:27:00,63.2,60.2,29.91,SE,133,8.0,11.0,90,0.00,,,0.00,VWS V14.01,2013-05-18 13:27:00,
2013-05-18 08:30:00,59.9,57.6,29.90,SE,126,8.0,11.0,92,0.00,,,0.00,VWS V14.01,2013-05-18 13:30:00,
2013-05-18 08:32:00,63.4,60.4,29.91,SSE,148,6.0,8.0,90,0.00,,,0.00,VWS V14.01,2013-05-18 13:32:00,
2013-05-18 08:37:00,63.6,60.6,29.91,SE,126,7.0,9.0,90,0.00,,,0.00,VWS V14.01,2013-05-18 13:37:00,
2013-05-18 08:42:00,63.9,61.2,29.91,SE,128,6.0,10.0,91,0.00,,,0.00,VWS V14.01,2013-05-18 13:42:00,
2013-05-18 08:47:00,64.3,61.0,29.91,ESE,112,7.0,10.0,89,0.00,,,0.00,VWS V14.01,2013-05-18 13:47:00,
2013-05-18 08:52:00,64.4,61.1,29.91,SE,138,6.0,10.0,89,0.00,,,0.00,VWS V14.01,2013-05-18 13:52:00,
2013-05-18 08:57:00,64.4,61.4,29.91,ESE,123,6.0,10.0,90,0.00,,,0.00,VWS V14.01,2013-05-18 13:57:00,
2013-05-18 09:00:00,61.6,59.3,29.90,SSE,153,8.0,10.0,92,0.00,,,0.00,VWS V14.01,2013-05-18 14:00:00,
2013-05-18 09:02:00,64.5,61.2,29.92,SE,133,6.0,9.0,89,0.00,,,0.00,VWS V14.01,2013-05-18 14:02:00,
2013-05-18 09:07:00,64.8,61.5,29.91,SE,134,6.0,9.0,89,0.00,,,0.00,VWS V14.01,2013-05-18 14:07:00,
2013-05-18 09:12:00,65.2,61.9,29.91,SE,146,6.0,9.0,89,0.00,,,0.00,VWS V14.01,2013-05-18 14:12:00,
2013-05-18 09:17:00,65.6,62.0,29.91,SE,128,4.0,9.0,88,0.00,,,0.00,VWS V14.01,2013-05-18 14:17:00,
2013-05-18 09:22:00,65.8,61.8,29.91,ESE,122,7.0,9.0,87,0.00,,,0.00,VWS V14.01,2013-05-18 14:22:00,
2013-05-18 09:27:00,66.1,62.8,29.92,SSE,153,8.0,9.0,89,0.00,,,0.00,VWS V14.01,2013-05-18 14:27:00,
2013-05-18 09:30:00,63.3,60.3,29.91,SE,129,6.0,11.0,90,0.00,,,0.00,VWS V14.01,2013-05-18 14:30:00,
2013-05-18 09:32:00,66.3,62.3,29.92,SE,128,4.0,7.0,87,0.00,,,0.00,VWS V14.01,2013-05-18 14:32:00,
2013-05-18 09:37:00,66.8,63.1,29.92,SE,134,6.0,7.0,88,0.00,,,0.00,VWS V14.01,2013-05-18 14:37:00,
2013-05-18 09:42:00,66.9,62.9,29.92,SE,129,5.0,9.0,87,0.00,,,0.00,VWS V14.01,2013-05-18 14:42:00,
2013-05-18 09:47:00,67.1,63.1,29.91,SE,143,5.0,9.0,87,0.00,,,0.00,VWS V14.01,2013-05-18 14:47:00,
2013-05-18 09:52:00,67.6,63.3,29.92,South,187,3.0,9.0,86,0.00,,,0.00,VWS V14.01,2013-05-18 14:52:00,
2013-05-18 09:57:00,68.0,63.7,29.91,SE,127,6.0,9.0,86,0.00,,,0.00,VWS V14.01,2013-05-18 14:57:00,
2013-05-18 10:00:00,64.5,61.5,29.92,ESE,117,8.0,10.0,90,0.00,,,0.00,VWS V14.01,2013-05-18 15:00:00,
2013-05-18 10:02:00,68.2,64.2,29.91,SE,141,7.0,7.0,87,0.00,,,0.00,VWS V14.01,2013-05-18 15:02:00,
2013-05-18 10:07:00,68.6,63.6,29.91,SE,145,3.0,7.0,84,0.00,,,0.00,VWS V14.01,2013-05-18 15:07:00,
2013-05-18 10:12:00,69.3,63.6,29.91,SE,125,4.0,7.0,82,0.00,,,0.00,VWS V14.01,2013-05-18 15:12:00,
2013-05-18 10:17:00,70.0,64.3,29.91,South,176,6.0,8.0,82,0.00,,,0.00,VWS V14.01,2013-05-18 15:17:00,
2013-05-18 10:22:00,70.5,64.0,29.91,SSE,158,2.0,8.0,80,0.00,,,0.00,VWS V14.01,2013-05-18 15:22:00,
2013-05-18 10:27:00,70.5,64.0,29.91,SE,138,6.0,8.0,80,0.00,,,0.00,VWS V14.01,2013-05-18 15:27:00,
2013-05-18 10:30:00,70.6,64.5,29.90,SSE,150,5.0,9.0,81,0.00,,,0.00,VWS V14.01,2013-05-18 15:30:00,
2013-05-18 10:32:00,70.7,64.6,29.90,SE,133,5.0,10.0,81,0.00,,,0.00,VWS V14.01,2013-05-18 15:32:00,
2013-05-18 10:37:00,70.6,63.8,29.90,SSE,148,5.0,10.0,79,0.00,,,0.00,VWS V14.01,2013-05-18 15:37:00,
2013-05-18 10:42:00,70.5,64.4,29.90,SSE,158,8.0,10.0,81,0.00,,,0.00,VWS V14.01,2013-05-18 15:42:00,
2013-05-18 10:47:00,70.7,64.6,29.90,SE,132,6.0,10.0,81,0.00,,,0.00,VWS V14.01,2013-05-18 15:47:00,
2013-05-18 10:52:00,71.4,64.9,29.90,SE,131,7.0,10.0,80,0.00,,,0.00,VWS V14.01,2013-05-18 15:52:00,
2013-05-18 10:57:00,71.6,65.5,29.90,SSE,152,7.0,11.0,81,0.00,,,0.00,VWS V14.01,2013-05-18 15:57:00,
2013-05-18 11:00:00,68.1,63.8,29.91,SE,129,5.0,9.0,86,0.00,,,0.00,VWS V14.01,2013-05-18 16:00:00,
2013-05-18 11:02:00,71.7,65.2,29.90,ESE,123,4.0,5.0,80,0.00,,SCT019,0.00,VWS V14.01,2013-05-18 16:02:00,
2013-05-18 11:07:00,71.5,65.7,29.90,South,179,7.0,9.0,82,0.00,,SCT019,0.00,VWS V14.01,2013-05-18 16:07:00,
2013-05-18 11:12:00,71.5,64.7,29.90,ESE,109,4.0,9.0,79,0.00,,SCT019,0.00,VWS V14.01,2013-05-18 16:12:00,
2013-05-18 11:17:00,71.8,64.6,29.90,SSE,152,7.0,9.0,78,0.00,,SCT019,0.00,VWS V14.01,2013-05-18 16:17:00,
2013-05-18 11:22:00,71.8,64.6,29.90,SSE,158,6.0,10.0,78,0.00,,SCT019,0.00,VWS V14.01,2013-05-18 16:22:00,
2013-05-18 11:27:00,71.9,65.4,29.90,ESE,110,5.0,10.0,80,0.00,,SCT019,0.00,VWS V14.01,2013-05-18 16:27:00,
2013-05-18 11:30:00,70.6,64.5,29.90,SSE,150,5.0,9.0,81,0.00,,,0.00,VWS V14.01,2013-05-18 16:30:00,
2013-05-18 11:32:00,72.3,63.9,29.90,SSE,158,3.0,5.0,75,0.00,,SCT019,0.00,VWS V14.01,2013-05-18 16:32:00,
2013-05-18 11:37:00,72.6,65.0,29.90,SE,135,4.0,7.0,77,0.00,,SCT019,0.00,VWS V14.01,2013-05-18 16:37:00,
2013-05-18 11:42:00,72.6,64.6,29.90,ESE,120,3.0,7.0,76,0.00,,SCT019,0.00,VWS V14.01,2013-05-18 16:42:00,
2013-05-18 11:47:00,72.6,63.8,29.90,SSE,167,3.0,7.0,74,0.00,,SCT019,0.00,VWS V14.01,2013-05-18 16:47:00,
2013-05-18 11:52:00,73.1,63.2,29.90,SE,140,3.0,7.0,71,0.00,,SCT019,0.00,VWS V14.01,2013-05-18 16:52:00,
2013-05-18 11:57:00,73.5,63.5,29.89,South,186,5.0,8.0,71,0.00,,SCT019,0.00,VWS V14.01,2013-05-18 16:57:00,
2013-05-18 12:00:00,71.7,66.3,29.90,ESE,108,4.0,11.0,83,0.00,,,0.00,VWS V14.01,2013-05-18 17:00:00,
2013-05-18 12:02:00,74.0,63.2,29.89,SSW,194,2.0,6.0,69,0.00,,BKN043,0.00,VWS V14.01,2013-05-18 17:02:00,
2013-05-18 12:07:00,74.0,62.4,29.89,SE,135,4.0,7.0,67,0.00,,BKN043,0.00,VWS V14.01,2013-05-18 17:07:00,
2013-05-18 12:12:00,74.1,63.7,29.89,South,173,2.0,7.0,70,0.00,,BKN043,0.00,VWS V14.01,2013-05-18 17:12:00,
2013-05-18 12:17:00,74.4,63.6,29.89,SSE,148,8.0,10.0,69,0.00,,BKN043,0.00,VWS V14.01,2013-05-18 17:17:00,
2013-05-18 12:22:00,74.3,63.5,29.88,SE,125,8.0,10.0,69,0.00,,BKN043,0.00,VWS V14.01,2013-05-18 17:22:00,
2013-05-18 12:27:00,74.5,63.3,29.88,SE,145,6.0,12.0,68,0.00,,BKN043,0.00,VWS V14.01,2013-05-18 17:27:00,
2013-05-18 12:30:00,72.2,63.8,29.90,SSE,149,3.0,10.0,75,0.00,,,0.00,VWS V14.01,2013-05-18 17:30:00,
2013-05-18 12:32:00,74.5,62.8,29.88,SE,134,7.0,10.0,67,0.00,,BKN043,0.00,VWS V14.01,2013-05-18 17:32:00,
2013-05-18 12:37:00,74.7,64.3,29.87,ESE,123,10.0,10.0,70,0.00,,BKN043,0.00,VWS V14.01,2013-05-18 17:37:00,
2013-05-18 12:42:00,74.5,64.1,29.87,SE,138,6.0,14.0,70,0.00,,BKN043,0.00,VWS V14.01,2013-05-18 17:42:00,
2013-05-18 12:47:00,74.6,63.8,29.87,ESE,118,9.0,14.0,69,0.00,,BKN043,0.00,VWS V14.01,2013-05-18 17:47:00,
2013-05-18 12:52:00,75.0,63.7,29.87,SSE,153,10.0,14.0,68,0.00,,BKN043,0.00,VWS V14.01,2013-05-18 17:52:00,
2013-05-18 12:57:00,75.3,65.3,29.87,SSE,152,6.0,14.0,71,0.00,,BKN049,0.00,VWS V14.01,2013-05-18 17:57:00,
2013-05-18 13:00:00,73.9,63.9,29.89,SSW,196,4.0,8.0,71,0.00,,,0.00,VWS V14.01,2013-05-18 18:00:00,
2013-05-18 13:02:00,75.3,64.8,29.86,SE,126,11.0,16.0,70,0.00,,BKN049,0.00,VWS V14.01,2013-05-18 18:02:00,
2013-05-18 13:07:00,75.2,63.5,29.86,ESE,103,11.0,16.0,67,0.00,,BKN049,0.00,VWS V14.01,2013-05-18 18:07:00,
2013-05-18 13:12:00,75.5,65.0,29.86,ESE,115,10.0,17.0,70,0.00,,BKN049,0.00,VWS V14.01,2013-05-18 18:12:00,
2013-05-18 13:17:00,75.6,64.7,29.85,SE,134,12.0,17.0,69,0.00,,BKN049,0.00,VWS V14.01,2013-05-18 18:17:00,
2013-05-18 13:22:00,75.8,64.5,29.85,SE,134,10.0,17.0,68,0.00,,BKN049,0.00,VWS V14.01,2013-05-18 18:22:00,
2013-05-18 13:27:00,76.1,66.0,29.84,SSE,152,10.0,17.0,71,0.00,,BKN049,0.00,VWS V14.01,2013-05-18 18:27:00,
2013-05-18 13:30:00,74.5,63.3,29.88,SE,135,6.0,12.0,68,0.00,,,0.00,VWS V14.01,2013-05-18 18:30:00,
2013-05-18 13:32:00,76.0,63.8,29.84,SSE,149,13.0,13.0,66,0.00,,BKN049,0.00,VWS V14.01,2013-05-18 18:32:00,
2013-05-18 13:36:00,76.0,63.8,29.84,ESE,117,9.0,16.0,66,0.00,,BKN049,0.00,VWS V14.01,2013-05-18 18:36:00,
2013-05-18 13:41:00,76.3,63.7,29.84,SSE,159,8.0,16.0,65,0.00,,BKN049,0.00,VWS V14.01,2013-05-18 18:41:00,
2013-05-18 13:46:00,76.3,63.7,29.84,SSE,162,7.0,16.0,65,0.00,,BKN049,0.00,VWS V14.01,2013-05-18 18:46:00,
2013-05-18 13:51:00,76.6,64.8,29.84,SE,131,11.0,16.0,67,0.00,,BKN049,0.00,VWS V14.01,2013-05-18 18:51:00,
2013-05-18 13:56:00,76.9,63.4,29.84,SSE,154,10.0,17.0,63,0.00,,BKN049,0.00,VWS V14.01,2013-05-18 18:56:00,
2013-05-18 14:00:00,75.3,64.0,29.86,ESE,110,11.0,14.0,68,0.00,,,0.00,VWS V14.01,2013-05-18 19:00:00,
2013-05-18 14:01:00,77.4,63.8,29.84,SSE,150,11.0,13.0,63,0.00,,SCT044,0.00,VWS V14.01,2013-05-18 19:01:00,
2013-05-18 14:06:00,77.5,64.8,29.83,SSE,153,9.0,16.0,65,0.00,,SCT044,0.00,VWS V14.01,2013-05-18 19:06:00,
2013-05-18 14:11:00,77.7,63.7,29.83,SE,129,13.0,16.0,62,0.00,,SCT044,0.00,VWS V14.01,2013-05-18 19:11:00,
2013-05-18 14:16:00,77.5,63.9,29.83,SE,136,12.0,16.0,63,0.00,,SCT044,0.00,VWS V14.01,2013-05-18 19:16:00,
2013-05-18 14:21:00,77.4,64.3,29.82,SE,126,13.0,16.0,64,0.00,,SCT044,0.00,VWS V14.01,2013-05-18 19:21:00,
2013-05-18 14:26:00,77.5,63.0,29.82,SSE,150,12.0,16.0,61,0.00,,SCT044,0.00,VWS V14.01,2013-05-18 19:26:00,
2013-05-18 14:30:00,76.2,66.5,29.84,ESE,108,9.0,17.0,72,0.00,,,0.00,VWS V14.01,2013-05-18 19:30:00,
2013-05-18 14:31:00,77.9,65.2,29.82,SE,145,8.0,11.0,65,0.00,,SCT044,0.00,VWS V14.01,2013-05-18 19:31:00,
2013-05-18 14:36:00,78.5,64.9,29.82,SE,127,16.0,19.0,63,0.00,,SCT044,0.00,VWS V14.01,2013-05-18 19:36:00,
2013-05-18 14:41:00,78.5,64.0,29.82,ESE,117,17.0,19.0,61,0.00,,SCT044,0.00,VWS V14.01,2013-05-18 19:41:00,
2013-05-18 14:46:00,78.5,63.0,29.82,SE,143,8.0,19.0,59,0.00,,SCT044,0.00,VWS V14.01,2013-05-18 19:46:00,
2013-05-18 14:51:00,78.5,63.5,29.82,SE,138,14.0,19.0,60,0.00,,SCT044,0.00,VWS V14.01,2013-05-18 19:51:00,
2013-05-18 14:56:00,78.6,62.6,29.82,SE,134,12.0,19.0,58,0.00,,SCT044,0.00,VWS V14.01,2013-05-18 19:56:00,
2013-05-18 15:00:00,77.4,63.4,29.84,SE,146,12.0,17.0,62,0.00,,,0.00,VWS V14.01,2013-05-18 20:00:00,
2013-05-18 15:01:00,78.9,64.3,29.81,SE,138,12.0,13.0,61,0.00,,SCT044,0.00,VWS V14.01,2013-05-18 20:01:00,
2013-05-18 15:06:00,79.3,64.2,29.81,ESE,119,17.0,23.0,60,0.00,,SCT044,0.00,VWS V14.01,2013-05-18 20:06:00,
2013-05-18 15:11:00,79.3,63.7,29.81,ESE,121,11.0,23.0,59,0.00,,SCT044,0.00,VWS V14.01,2013-05-18 20:11:00,
2013-05-18 15:16:00,79.3,63.3,29.81,SSE,148,14.0,23.0,58,0.00,,SCT044,0.00,VWS V14.01,2013-05-18 20:16:00,
2013-05-18 15:21:00,79.0,63.5,29.80,SSE,158,15.0,23.0,59,0.00,,SCT044,0.00,VWS V14.01,2013-05-18 20:21:00,
2013-05-18 15:26:00,79.2,63.7,29.80,SSE,161,13.0,23.0,59,0.00,,SCT044,0.00,VWS V14.01,2013-05-18 20:26:00,
2013-05-18 15:30:00,77.8,64.2,29.82,SE,146,8.0,16.0,63,0.00,,,0.00,VWS V14.01,2013-05-18 20:30:00,
2013-05-18 15:31:00,79.5,61.9,29.80,ESE,119,13.0,21.0,55,0.00,,SCT044,0.00,VWS V14.01,2013-05-18 20:31:00,
2013-05-18 15:36:00,79.7,63.1,29.79,SE,142,11.0,21.0,57,0.00,,SCT044,0.00,VWS V14.01,2013-05-18 20:36:00,
2013-05-18 15:41:00,80.1,64.5,29.79,ESE,116,11.0,21.0,59,0.00,,SCT044,0.00,VWS V14.01,2013-05-18 20:41:00,
2013-05-18 15:46:00,80.3,63.7,29.79,SE,132,13.0,21.0,57,0.00,,SCT044,0.00,VWS V14.01,2013-05-18 20:46:00,
2013-05-18 15:51:00,80.4,63.3,29.79,SSE,165,13.0,21.0,56,0.00,,SCT044,0.00,VWS V14.01,2013-05-18 20:51:00,
2013-05-18 15:56:00,80.5,61.8,29.79,SE,141,11.0,21.0,53,0.00,,SCT044,0.00,VWS V14.01,2013-05-18 20:56:00,
2013-05-18 16:00:00,78.8,64.2,29.81,SE,134,9.0,19.0,61,0.00,,,0.00,VWS V14.01,2013-05-18 21:00:00,
2013-05-18 16:01:00,80.8,61.5,29.79,SSE,156,12.0,16.0,52,0.00,,FEW046,0.00,VWS V14.01,2013-05-18 21:01:00,
2013-05-18 16:06:00,80.7,62.0,29.79,SSE,152,18.0,21.0,53,0.00,,FEW046,0.00,VWS V14.01,2013-05-18 21:06:00,
2013-05-18 16:11:00,80.5,62.3,29.79,SSE,153,12.0,21.0,54,0.00,,FEW046,0.00,VWS V14.01,2013-05-18 21:11:00,
2013-05-18 16:16:00,80.9,63.2,29.79,SSE,157,13.0,21.0,55,0.00,,FEW046,0.00,VWS V14.01,2013-05-18 21:16:00,
2013-05-18 16:21:00,80.9,62.2,29.78,SSE,150,11.0,21.0,53,0.00,,FEW046,0.00,VWS V14.01,2013-05-18 21:21:00,
2013-05-18 16:26:00,81.0,62.3,29.79,SE,141,16.0,21.0,53,0.00,,FEW046,0.00,VWS V14.01,2013-05-18 21:26:00,
2013-05-18 16:30:00,79.5,62.5,29.79,SE,133,18.0,23.0,56,0.00,,,0.00,VWS V14.01,2013-05-18 21:30:00,
2013-05-18 16:31:00,81.1,61.8,29.78,SSE,152,14.0,15.0,52,0.00,,FEW046,0.00,VWS V14.01,2013-05-18 21:31:00,
2013-05-18 16:36:00,81.2,61.9,29.78,SE,136,12.0,17.0,52,0.00,,FEW046,0.00,VWS V14.01,2013-05-18 21:36:00,
2013-05-18 16:42:00,81.0,62.3,29.77,SE,141,10.0,18.0,53,0.00,,FEW046,0.00,VWS V14.01,2013-05-18 21:42:00,
2013-05-18 16:47:00,81.0,62.8,29.78,ESE,122,13.0,19.0,54,0.00,,FEW046,0.00,VWS V14.01,2013-05-18 21:47:00,
2013-05-18 16:52:00,81.4,61.5,29.77,SSE,162,15.0,19.0,51,0.00,,FEW046,0.00,VWS V14.01,2013-05-18 21:52:00,
2013-05-18 16:57:00,81.8,62.5,29.78,SE,139,14.0,19.0,52,0.00,,FEW060,0.00,VWS V14.01,2013-05-18 21:57:00,
2013-05-18 17:00:00,80.8,62.1,29.80,SSE,158,15.0,22.0,53,0.00,,,0.00,VWS V14.01,2013-05-18 22:00:00,
2013-05-18 17:01:00,82.0,61.0,29.77,SSE,149,15.0,17.0,49,0.00,,FEW060,0.00,VWS V14.01,2013-05-18 22:01:00,
2013-05-18 17:06:00,81.9,62.0,29.78,SE,131,9.0,17.0,51,0.00,,FEW060,0.00,VWS V14.01,2013-05-18 22:06:00,
2013-05-18 17:11:00,82.2,62.8,29.78,SE,145,13.0,17.0,52,0.00,,FEW060,0.00,VWS V14.01,2013-05-18 22:11:00,
2013-05-18 17:16:00,82.1,61.6,29.78,SE,146,15.0,20.0,50,0.00,,FEW060,0.00,VWS V14.01,2013-05-18 22:16:00,
2013-05-18 17:21:00,82.0,62.7,29.78,SSE,150,10.0,20.0,52,0.00,,FEW060,0.00,VWS V14.01,2013-05-18 22:21:00,
2013-05-18 17:26:00,81.5,62.7,29.78,SE,145,10.0,20.0,53,0.00,,FEW060,0.00,VWS V14.01,2013-05-18 22:26:00,
2013-05-18 17:30:00,81.1,61.8,29.78,South,190,11.0,21.0,52,0.00,,,0.00,VWS V14.01,2013-05-18 22:30:00,
2013-05-18 17:31:00,80.8,61.0,29.78,SE,142,16.0,17.0,51,0.00,,FEW060,0.00,VWS V14.01,2013-05-18 22:31:00,
2013-05-18 17:36:00,80.7,62.0,29.78,SE,145,8.0,17.0,53,0.00,,FEW060,0.00,VWS V14.01,2013-05-18 22:36:00,
2013-05-18 17:41:00,81.1,62.4,29.78,SE,145,14.0,19.0,53,0.00,,FEW060,0.00,VWS V14.01,2013-05-18 22:41:00,
2013-05-18 17:46:00,80.7,62.0,29.78,SSE,156,9.0,19.0,53,0.00,,FEW060,0.00,VWS V14.01,2013-05-18 22:46:00,
2013-05-18 17:51:00,80.5,61.8,29.79,SSE,156,7.0,19.0,53,0.00,,FEW060,0.00,VWS V14.01,2013-05-18 22:51:00,
2013-05-18 17:56:00,80.5,61.8,29.79,SE,145,13.0,19.0,53,0.00,,FEW060,0.00,VWS V14.01,2013-05-18 22:56:00,
2013-05-18 18:00:00,82.0,62.1,29.77,SSE,162,11.0,19.0,51,0.00,,,0.00,VWS V14.01,2013-05-18 23:00:00,
2013-05-18 18:01:00,80.4,62.2,29.79,SSE,160,9.0,14.0,54,0.00,,SCT065,0.00,VWS V14.01,2013-05-18 23:01:00,
2013-05-18 18:06:00,80.4,62.2,29.79,South,177,11.0,14.0,54,0.00,,SCT065,0.00,VWS V14.01,2013-05-18 23:06:00,
2013-05-18 18:11:00,80.4,62.8,29.79,South,187,6.0,14.0,55,0.00,,SCT065,0.00,VWS V14.01,2013-05-18 23:11:00,
2013-05-18 18:16:00,80.2,62.6,29.79,South,183,7.0,14.0,55,0.00,,SCT065,0.00,VWS V14.01,2013-05-18 23:16:00,
2013-05-18 18:21:00,80.1,62.5,29.79,SSE,162,5.0,14.0,55,0.00,,SCT065,0.00,VWS V14.01,2013-05-18 23:21:00,
2013-05-18 18:26:00,80.0,62.9,29.78,SSE,158,6.0,14.0,56,0.00,,SCT065,0.00,VWS V14.01,2013-05-18 23:26:00,
2013-05-18 18:30:00,81.0,61.7,29.78,SE,144,17.0,20.0,52,0.00,,,0.00,VWS V14.01,2013-05-18 23:30:00,
2013-05-18 18:31:00,80.0,63.4,29.78,SSE,167,11.0,11.0,57,0.00,,SCT065,0.00,VWS V14.01,2013-05-18 23:31:00,
2013-05-18 18:36:00,79.9,62.8,29.78,South,189,4.0,11.0,56,0.00,,SCT065,0.00,VWS V14.01,2013-05-18 23:36:00,
2013-05-18 18:41:00,79.8,62.7,29.78,SSE,160,4.0,11.0,56,0.00,,SCT065,0.00,VWS V14.01,2013-05-18 23:41:00,
2013-05-18 18:46:00,79.6,63.5,29.78,SSE,160,4.0,11.0,58,0.00,,SCT065,0.00,VWS V14.01,2013-05-18 23:46:00,
2013-05-18 18:51:00,79.3,63.7,29.78,SSW,201,7.0,11.0,59,0.00,,SCT065,0.00,VWS V14.01,2013-05-18 23:51:00,
2013-05-18 18:56:00,79.2,63.7,29.78,SSE,149,8.0,11.0,59,0.00,,BKN075,0.00,VWS V14.01,2013-05-18 23:56:00,
2013-05-18 19:00:00,80.4,62.2,29.79,SSE,162,8.0,19.0,54,0.00,,,0.00,VWS V14.01,2013-05-19 00:00:00,
2013-05-18 19:01:00,79.0,63.5,29.78,SE,140,5.0,7.0,59,0.00,,BKN075,0.00,VWS V14.01,2013-05-19 00:01:00,
2013-05-18 19:06:00,79.0,63.5,29.78,South,188,7.0,9.0,59,0.00,,BKN075,0.00,VWS V14.01,2013-05-19 00:06:00,
2013-05-18 19:11:00,78.9,63.4,29.78,SSE,148,4.0,9.0,59,0.00,,BKN075,0.00,VWS V14.01,2013-05-19 00:11:00,
2013-05-18 19:16:00,78.7,64.1,29.78,SE,145,5.0,9.0,61,0.00,,BKN075,0.00,VWS V14.01,2013-05-19 00:16:00,
2013-05-18 19:21:00,78.6,63.6,29.78,SSE,154,6.0,9.0,60,0.00,,BKN075,0.00,VWS V14.01,2013-05-19 00:21:00,
2013-05-18 19:26:00,78.5,64.0,29.78,SSE,155,3.0,9.0,61,0.00,,BKN075,0.00,VWS V14.01,2013-05-19 00:26:00,
2013-05-18 19:30:00,80.0,62.9,29.78,SSE,165,5.0,14.0,56,0.00,,,0.00,VWS V14.01,2013-05-19 00:30:00,
2013-05-18 19:31:00,78.3,64.2,29.78,SE,138,5.0,6.0,62,0.00,,BKN075,0.00,VWS V14.01,2013-05-19 00:31:00,
2013-05-18 19:36:00,78.3,63.8,29.78,SSE,148,9.0,10.0,61,0.00,,BKN075,0.00,VWS V14.01,2013-05-19 00:36:00,
2013-05-18 19:41:00,78.3,63.3,29.78,SSE,149,8.0,10.0,60,0.00,,BKN075,0.00,VWS V14.01,2013-05-19 00:41:00,
2013-05-18 19:46:00,78.2,63.2,29.77,SE,134,6.0,11.0,60,0.00,,BKN075,0.00,VWS V14.01,2013-05-19 00:46:00,
2013-05-18 19:51:00,78.0,63.0,29.77,SSE,153,8.0,11.0,60,0.00,,BKN075,0.00,VWS V14.01,2013-05-19 00:51:00,
2013-05-18 19:56:00,77.7,63.2,29.77,SSE,155,8.0,11.0,61,0.00,,BKN075,0.00,VWS V14.01,2013-05-19 00:56:00,
2013-05-18 20:00:00,79.1,63.6,29.78,SE,125,5.0,11.0,59,0.00,,,0.00,VWS V14.01,2013-05-19 01:00:00,
2013-05-18 20:01:00,77.6,63.6,29.77,ESE,121,5.0,7.0,62,0.00,,OVC075,0.00,VWS V14.01,2013-05-19 01:01:00,
2013-05-18 20:06:00,76.8,64.2,29.77,SE,127,5.0,8.0,65,0.00,,OVC075,0.00,VWS V14.01,2013-05-19 01:06:00,
2013-05-18 20:11:00,76.3,64.1,29.76,SE,134,6.0,8.0,66,0.00,,OVC075,0.00,VWS V14.01,2013-05-19 01:11:00,
2013-05-18 20:16:00,75.8,64.1,29.76,SE,135,4.0,8.0,67,0.00,,OVC075,0.00,VWS V14.01,2013-05-19 01:16:00,
2013-05-18 20:21:00,75.4,63.7,29.76,SE,134,4.0,8.0,67,0.00,,OVC075,0.00,VWS V14.01,2013-05-19 01:21:00,
2013-05-18 20:26:00,74.9,63.6,29.76,ESE,114,4.0,8.0,68,0.00,,OVC075,0.00,VWS V14.01,2013-05-19 01:26:00,
2013-05-18 20:30:00,78.3,64.2,29.78,SE,139,4.0,9.0,62,0.00,,,0.00,VWS V14.01,2013-05-19 01:30:00,
2013-05-18 20:31:00,74.3,63.9,29.75,ESE,108,4.0,4.0,70,0.00,,OVC075,0.00,VWS V14.01,2013-05-19 01:31:00,
2013-05-18 20:36:00,73.7,63.7,29.75,SE,125,4.0,5.0,71,0.00,,OVC075,0.00,VWS V14.01,2013-05-19 01:36:00,
2013-05-18 20:41:00,73.3,63.3,29.75,ESE,117,3.0,5.0,71,0.00,,OVC075,0.00,VWS V14.01,2013-05-19 01:41:00,
2013-05-18 20:46:00,72.8,63.3,29.74,ESE,121,3.0,5.0,72,0.00,,OVC075,0.00,VWS V14.01,2013-05-19 01:46:00,
2013-05-18 20:51:00,72.4,63.3,29.74,ESE,122,3.0,5.0,73,0.00,,OVC075,0.00,VWS V14.01,2013-05-19 01:51:00,
2013-05-18 20:56:00,72.0,63.3,29.74,ESE,123,4.0,5.0,74,0.00,,OVC075,0.00,VWS V14.01,2013-05-19 01:56:00,
2013-05-18 21:00:00,77.6,63.1,29.77,SE,142,7.0,11.0,61,0.00,,,0.00,VWS V14.01,2013-05-19 02:00:00,
2013-05-18 21:01:00,71.8,63.5,29.74,ESE,112,4.0,4.0,75,0.00,,CLR,0.00,VWS V14.01,2013-05-19 02:01:00,
2013-05-18 21:06:00,71.4,63.1,29.74,SE,125,4.0,5.0,75,0.00,,CLR,0.00,VWS V14.01,2013-05-19 02:06:00,
2013-05-18 21:11:00,71.1,63.2,29.74,ESE,117,4.0,6.0,76,0.00,,CLR,0.00,VWS V14.01,2013-05-19 02:11:00,
2013-05-18 21:16:00,70.8,62.9,29.74,ESE,122,4.0,6.0,76,0.00,,CLR,0.00,VWS V14.01,2013-05-19 02:16:00,
2013-05-18 21:21:00,70.6,62.7,29.74,ESE,119,5.0,7.0,76,0.00,,CLR,0.00,VWS V14.01,2013-05-19 02:21:00,
2013-05-18 21:26:00,70.7,62.8,29.74,SE,125,6.0,8.0,76,0.00,,CLR,0.00,VWS V14.01,2013-05-19 02:26:00,
2013-05-18 21:30:00,74.4,64.0,29.75,SE,125,4.0,8.0,70,0.00,,,0.00,VWS V14.01,2013-05-19 02:30:00,
2013-05-18 21:31:00,70.7,62.8,29.74,ESE,111,6.0,7.0,76,0.00,,CLR,0.00,VWS V14.01,2013-05-19 02:31:00,
2013-05-18 21:36:00,70.7,62.4,29.74,SE,134,5.0,7.0,75,0.00,,CLR,0.00,VWS V14.01,2013-05-19 02:36:00,
2013-05-18 21:41:00,70.9,62.2,29.74,SE,132,6.0,8.0,74,0.00,,CLR,0.00,VWS V14.01,2013-05-19 02:41:00,
2013-05-18 21:46:00,71.1,62.4,29.75,ESE,123,4.0,8.0,74,0.00,,CLR,0.00,VWS V14.01,2013-05-19 02:46:00,
2013-05-18 21:51:00,70.7,62.4,29.74,ESE,113,5.0,8.0,75,0.00,,CLR,0.00,VWS V14.01,2013-05-19 02:51:00,
2013-05-18 21:56:00,70.1,62.6,29.74,SE,125,5.0,8.0,77,0.00,,CLR,0.00,VWS V14.01,2013-05-19 02:56:00,
2013-05-18 22:00:00,71.8,63.5,29.74,SE,125,4.0,5.0,75,0.00,,,0.00,VWS V14.01,2013-05-19 03:00:00,
2013-05-18 22:01:00,69.6,62.4,29.74,ESE,115,4.0,5.0,78,0.00,,CLR,0.00,VWS V14.01,2013-05-19 03:01:00,
2013-05-18 22:06:00,69.6,62.1,29.75,SE,129,6.0,9.0,77,0.00,,CLR,0.00,VWS V14.01,2013-05-19 03:06:00,
2013-05-18 22:11:00,70.4,62.5,29.75,SE,138,5.0,9.0,76,0.00,,CLR,0.00,VWS V14.01,2013-05-19 03:11:00,
2013-05-18 22:16:00,70.7,62.4,29.75,SE,142,6.0,9.0,75,0.00,,CLR,0.00,VWS V14.01,2013-05-19 03:16:00,
2013-05-18 22:21:00,70.6,62.3,29.75,SSE,153,8.0,9.0,75,0.00,,CLR,0.00,VWS V14.01,2013-05-19 03:21:00,
2013-05-18 22:26:00,70.5,62.2,29.75,SSE,149,7.0,9.0,75,0.00,,CLR,0.00,VWS V14.01,2013-05-19 03:26:00,
2013-05-18 22:30:00,70.7,62.8,29.74,SE,126,6.0,8.0,76,0.00,,,0.00,VWS V14.01,2013-05-19 03:30:00,
2013-05-18 22:31:00,69.6,62.1,29.74,SE,128,8.0,8.0,77,0.00,,CLR,0.00,VWS V14.01,2013-05-19 03:31:00,
2013-05-18 22:36:00,69.4,61.9,29.74,SE,136,4.0,8.0,77,0.00,,CLR,0.00,VWS V14.01,2013-05-19 03:36:00,
2013-05-18 22:41:00,68.8,62.0,29.74,SSE,152,3.0,8.0,79,0.00,,CLR,0.00,VWS V14.01,2013-05-19 03:41:00,
2013-05-18 22:46:00,68.5,61.7,29.74,ESE,118,4.0,8.0,79,0.00,,CLR,0.00,VWS V14.01,2013-05-19 03:46:00,
2013-05-18 22:51:00,68.2,61.8,29.74,ESE,121,6.0,8.0,80,0.00,,CLR,0.00,VWS V14.01,2013-05-19 03:51:00,
2013-05-18 22:56:00,67.8,61.8,29.73,SE,126,7.0,8.0,81,0.00,,CLR,0.00,VWS V14.01,2013-05-19 03:56:00,
2013-05-18 23:00:00,69.7,62.5,29.74,ESE,115,4.0,8.0,78,0.00,,,0.00,VWS V14.01,2013-05-19 04:00:00,
2013-05-18 23:01:00,67.6,61.6,29.74,SE,139,4.0,4.0,81,0.00,,CLR,0.00,VWS V14.01,2013-05-19 04:01:00,
2013-05-18 23:06:00,67.7,61.7,29.74,SE,130,5.0,6.0,81,0.00,,CLR,0.00,VWS V14.01,2013-05-19 04:06:00,
2013-05-18 23:11:00,67.6,61.6,29.74,SE,137,4.0,6.0,81,0.00,,CLR,0.00,VWS V14.01,2013-05-19 04:11:00,
2013-05-18 23:16:00,67.3,61.6,29.74,ESE,118,4.0,6.0,82,0.00,,CLR,0.00,VWS V14.01,2013-05-19 04:16:00,
2013-05-18 23:21:00,67.2,61.5,29.73,SE,131,3.0,6.0,82,0.00,,CLR,0.00,VWS V14.01,2013-05-19 04:21:00,
2013-05-18 23:26:00,67.3,61.6,29.73,SE,135,5.0,7.0,82,0.00,,CLR,0.00,VWS V14.01,2013-05-19 04:26:00,
2013-05-18 23:30:00,69.7,62.2,29.74,ESE,123,6.0,9.0,77,0.00,,,0.00,VWS V14.01,2013-05-19 04:30:00,
2013-05-18 23:31:00,67.4,61.4,29.73,SE,127,5.0,7.0,81,0.00,,CLR,0.00,VWS V14.01,2013-05-19 04:31:00,
2013-05-18 23:36:00,67.2,61.5,29.73,ESE,114,6.0,7.0,82,0.00,,CLR,0.00,VWS V14.01,2013-05-19 04:36:00,
2013-05-18 23:41:00,67.2,61.5,29.73,SE,126,5.0,8.0,82,0.00,,CLR,0.00,VWS V14.01,2013-05-19 04:41:00,
2013-05-18 23:46:00,66.9,61.6,29.73,SE,125,6.0,8.0,83,0.00,,CLR,0.00,VWS V14.01,2013-05-19 04:46:00,
2013-05-18 23:51:00,66.7,61.4,29.73,SE,125,4.0,8.0,83,0.00,,CLR,0.00,VWS V14.01,2013-05-19 04:51:00,
2013-05-18 23:56:00,66.8,61.5,29.73,SE,131,7.0,8.0,83,0.00,,CLR,0.00,VWS V14.01,2013-05-19 04:56:00,